STARLINK-5920 (55935 NORAD) Tracking and Keplerian Element Data

This shows tracking and keplerian element data for the satellite.

Feedback or suggestion? Click here.




ElementValue
Catalog55935
NameSTARLINK-5920
Epoch Orbit840
Epoch Day126.93219492
Epoch Year2023
RAAN40.0349
Inclination70.0025
Eccentricity0.0004306
Argument of Perigee257.7305
Mean Anonmoly102.3409
Mean Motion15.69946614
Decay Rate0.0001086
L11 55935U 23037X 23126.93219492 .00010860 00000+0 91865-4 0 9992
L22 55935 70.0025 40.0349 0004306 257.7305 102.3409 15.69946614 8407



Live tracking and technical data element details for STARLINK-5920 (NORAD 55935). STARLINK-5920 can be tracked NOW for your location showing map with azimuth and elevation plus other details from your city location.







IsCatalogInMostPopularTable: catalog: 55935, numindb: 9
Update: records affected: 1



GetName: 55935 STARLINK-5920

Hit Count: updated at: Tue, 06 Jun 2023 03:37:20 GMT